Weather History for KDMA - January, 2012

Change the Weather History Date:

Friday, January 13, 2012

  Actual Average Record
Temperature  
Mean Temperature 52 °F -  
Max Temperature 67 °F 64 °F 78 °F (2000)
Min Temperature 36 °F 39 °F 21 °F (1963)
Degree Days  
Heating Degree Days 14    
Growing Degree Days 2 (Base 50)    
Moisture  
Dew Point 18 °F    
Average Humidity 35    
Maximum Humidity 64    
Minimum Humidity 11    
Precipitation  
Precipitation 0.00 in - - ()
Sea Level Pressure  
Sea Level Pressure 30.15 in    
Wind  
Wind Speed 5 mph (ESE)    
Max Wind Speed 13 mph    
Max Gust Speed -    
Visibility 10 miles    
Events      
Averages and records for this station are not official NWS values.
T = Trace of Precipitation, MM = Missing Value Source: NWS Daily Summary

Daily Weather History Graph

Daily Weather History Graph

Search for Another Location

Airport or City:

Trip Planner

Search our weather history database for the weather conditions in past years. The results will help you decide how hot, cold, wet, or windy it might be!

Date:

Astronomy

Jan. 13, 2012 Rise Set
Actual Time 7:25 AM MST 5:39 PM MST
Civil Twilight 6:58 AM MST 6:05 PM MST
Nautical Twilight 6:28 AM MST 6:36 PM MST
Astronomical Twilight 5:58 AM MST 7:05 PM MST
Moon 10:34 PM MST (1/13) 10:00 AM MST (1/13)
Length of Visible Light 11h 07m
Length of Day
10h 14m
Waning Gibbous, 78% of the Moon is Illuminated
Jan 13
Waning Gibbous
Jan 16
Last Quarter
Jan 23
New
Jan 30
First Quarter
Feb 7
Full

Hourly Weather History & Observations

Time (MST) Temp. Windchill Dew Point Humidity Pressure Visibility Wind Dir Wind Speed Gust Speed Precip Events Conditions
12:55 AM 39.6 °F 36.3 °F 25.0 °F 56% 30.07 in 10.0 mi South 4.6 mph - N/A   Clear
1:55 AM 37.9 °F 34.4 °F 25.3 °F 60% 30.09 in 10.0 mi SE 4.6 mph - N/A   Clear
2:55 AM 36.7 °F 31.2 °F 25.3 °F 64% 30.10 in 10.0 mi SE 6.9 mph - N/A   Clear
3:55 AM 39.0 °F 36.8 °F 24.4 °F 56% 30.11 in 10.0 mi SE 3.5 mph - N/A   Clear
4:55 AM 37.4 °F 32.1 °F 23.7 °F 58% 30.11 in 10.0 mi SE 6.9 mph - N/A   Clear
5:55 AM 37.6 °F 34.0 °F 23.0 °F 56% 30.12 in 10.0 mi ESE 4.6 mph - N/A   Clear
6:55 AM 36.7 °F - 23.0 °F 58% 30.13 in 10.0 mi Calm Calm - N/A   Clear
7:55 AM 36.1 °F 33.5 °F 23.7 °F 61% 30.16 in 10.0 mi NNE 3.5 mph - N/A   Clear
8:55 AM 42.6 °F - 24.6 °F 49% 30.18 in 10.0 mi Calm Calm - N/A   Clear
9:55 AM 46.9 °F - 23.9 °F 40% 30.20 in 10.0 mi West 3.5 mph - N/A   Clear
10:55 AM 53.8 °F - 21.0 °F 28% 30.20 in 10.0 mi NW 3.5 mph - N/A   Clear
11:55 AM 58.3 °F - 17.6 °F 20% 30.18 in 10.0 mi Calm Calm - N/A   Clear
12:55 PM 62.1 °F - 15.6 °F 16% 30.14 in 10.0 mi SSE 6.9 mph - N/A   Clear
1:55 PM 64.4 °F - 14.7 °F 15% 30.11 in 10.0 mi Variable 4.6 mph - N/A   Clear
2:55 PM 65.8 °F - 12.6 °F 13% 30.10 in 10.0 mi ESE 8.1 mph - N/A   Clear
3:55 PM 67.1 °F - 12.4 °F 12% 30.09 in 10.0 mi Calm Calm - N/A   Clear
4:55 PM 65.5 °F - 9.3 °F 11% 30.12 in 10.0 mi NNE 6.9 mph - N/A   Clear
5:55 PM 61.9 °F - 7.7 °F 12% 30.15 in 10.0 mi NW 5.8 mph - N/A   Clear
6:55 PM 53.4 °F - 19.6 °F 27% 30.18 in 10.0 mi NNW 3.5 mph - N/A   Clear
7:55 PM 50.0 °F - 18.0 °F 28% 30.20 in 10.0 mi East 8.1 mph - N/A   Clear
8:55 PM 46.6 °F - 15.3 °F 29% 30.21 in 10.0 mi SE 8.1 mph - N/A   Clear
9:55 PM 50.2 °F - 10.8 °F 21% 30.21 in 10.0 mi ESE 12.7 mph - N/A   Clear
10:55 PM 49.3 °F - 10.9 °F 21% 30.20 in 10.0 mi ESE 11.5 mph - N/A   Clear
11:55 PM 48.4 °F - 10.2 °F 21% 30.18 in 10.0 mi ESE 12.7 mph - N/A   Clear